Wetterdaten: Montag, 05.01.2015
Datum Zeit Temp. A. Feuchte A. Luftdruck Regen Wind Richtung Richtung Sonnenschein ET UV Solar Taupunkt Windchill Windben Empfang
05.01.2015 00:00 0,6 C 72 % 1031,7 hPa 0,0 l/m 7,9 km/h (2 Bft) W-SW 254 0 min 0,000 mm 0,0 UV-I 0 W/m -3,9 C -0,9 C 11,9 km/h (2 Bft) 0,00 %
05.01.2015 00:15 0,5 C 75 % 1031,7 hPa 0,0 l/m 1,4 km/h (1 Bft) SW 218 0 min 0,000 mm 0,0 UV-I 0 W/m -3,4 C 0,5 C 4,0 km/h (1 Bft) 0,00 %
05.01.2015 00:30 0,3 C 76 % 1031,9 hPa 0,0 l/m 7,9 km/h (2 Bft) W-SW 256 0 min 0,000 mm 0,0 UV-I 0 W/m -3,4 C -1,2 C 11,9 km/h (2 Bft) 0,00 %
05.01.2015 00:45 0,5 C 73 % 1031,9 hPa 0,0 l/m 9,0 km/h (2 Bft) W-SW 241 0 min 0,000 mm 0,0 UV-I 0 W/m -3,8 C -2,0 C 11,9 km/h (2 Bft) 0,00 %
05.01.2015 01:00 0,4 C 74 % 1031,8 hPa 0,0 l/m 1,8 km/h (1 Bft) O-SO 112 0 min 0,000 mm 0,0 UV-I 0 W/m -3,7 C 0,4 C 4,0 km/h (1 Bft) 0,00 %
05.01.2015 01:15 0,2 C 74 % 1031,9 hPa 0,0 l/m 9,7 km/h (2 Bft) W-SW 252 0 min 0,000 mm 0,0 UV-I 0 W/m -3,9 C -3,0 C 15,8 km/h (3 Bft) 0,00 %
05.01.2015 01:30 0,3 C 74 % 1032,2 hPa 0,0 l/m 3,2 km/h (1 Bft) SO 139 0 min 0,000 mm 0,0 UV-I 0 W/m -3,8 C 0,3 C 11,9 km/h (2 Bft) 0,00 %
05.01.2015 01:45 0,3 C 73 % 1032,3 hPa 0,0 l/m 5,8 km/h (2 Bft) W-SW 252 0 min 0,000 mm 0,0 UV-I 0 W/m -4,0 C 0,3 C 7,9 km/h (2 Bft) 0,00 %
05.01.2015 02:00 0,3 C 73 % 1032,3 hPa 0,0 l/m 4,3 km/h (1 Bft) W-SW 255 0 min 0,000 mm 0,0 UV-I 0 W/m -4,0 C 0,3 C 7,9 km/h (2 Bft) 0,00 %
05.01.2015 02:15 0,2 C 73 % 1032,2 hPa 0,0 l/m 6,5 km/h (2 Bft) W-SW 250 0 min 0,000 mm 0,0 UV-I 0 W/m -4,1 C 0,1 C 11,9 km/h (2 Bft) 0,00 %
05.01.2015 02:30 0,2 C 73 % 1032,5 hPa 0,0 l/m 2,9 km/h (1 Bft) W-SW 251 0 min 0,000 mm 0,0 UV-I 0 W/m -4,1 C 0,2 C 7,9 km/h (2 Bft) 0,00 %
05.01.2015 02:45 0,3 C 73 % 1032,5 hPa 0,0 l/m 9,0 km/h (2 Bft) W-SW 254 0 min 0,000 mm 0,0 UV-I 0 W/m -4,0 C -2,3 C 15,8 km/h (3 Bft) 0,00 %
05.01.2015 03:00 0,1 C 74 % 1032,2 hPa 0,0 l/m 7,2 km/h (2 Bft) W-SW 253 0 min 0,000 mm 0,0 UV-I 0 W/m -4,0 C -0,7 C 11,9 km/h (2 Bft) 0,00 %
05.01.2015 03:15 0,2 C 75 % 1032,2 hPa 0,0 l/m 9,7 km/h (2 Bft) W-SW 254 0 min 0,000 mm 0,0 UV-I 0 W/m -3,7 C -3,0 C 11,9 km/h (2 Bft) 0,00 %
05.01.2015 03:30 0,4 C 75 % 1032,3 hPa 0,0 l/m 4,7 km/h (1 Bft) W-SW 255 0 min 0,000 mm 0,0 UV-I 0 W/m -3,5 C 0,4 C 7,9 km/h (2 Bft) 0,00 %
05.01.2015 03:45 0,4 C 74 % 1032,3 hPa 0,0 l/m 5,4 km/h (1 Bft) W-SW 254 0 min 0,000 mm 0,0 UV-I 0 W/m -3,7 C 0,4 C 7,9 km/h (2 Bft) 0,00 %
05.01.2015 04:00 0,4 C 73 % 1032,0 hPa 0,0 l/m 8,3 km/h (2 Bft) W-NW 294 0 min 0,000 mm 0,0 UV-I 0 W/m -3,9 C -1,5 C 11,9 km/h (2 Bft) 0,00 %
05.01.2015 04:15 0,5 C 73 % 1032,2 hPa 0,0 l/m 0,7 km/h (0 Bft) SW 231 0 min 0,000 mm 0,0 UV-I 0 W/m -3,8 C 0,5 C 4,0 km/h (1 Bft) 0,00 %
05.01.2015 04:30 0,6 C 72 % 1032,1 hPa 0,0 l/m 0,4 km/h (0 Bft) S-SO 164 0 min 0,000 mm 0,0 UV-I 0 W/m -3,9 C 0,6 C 4,0 km/h (1 Bft) 0,00 %
05.01.2015 04:45 0,6 C 72 % 1032,0 hPa 0,0 l/m 3,2 km/h (1 Bft) W-SW 256 0 min 0,000 mm 0,0 UV-I 0 W/m -3,9 C 0,6 C 4,0 km/h (1 Bft) 0,00 %
05.01.2015 05:00 0,6 C 72 % 1032,3 hPa 0,0 l/m 4,0 km/h (1 Bft) W-SW 251 0 min 0,000 mm 0,0 UV-I 0 W/m -3,9 C 0,6 C 7,9 km/h (2 Bft) 0,00 %
05.01.2015 05:15 0,7 C 72 % 1032,2 hPa 0,0 l/m 2,9 km/h (1 Bft) S-SW 211 0 min 0,000 mm 0,0 UV-I 0 W/m -3,8 C 0,7 C 7,9 km/h (2 Bft) 0,00 %
05.01.2015 05:30 0,7 C 72 % 1031,7 hPa 0,0 l/m 4,0 km/h (1 Bft) W-SW 255 0 min 0,000 mm 0,0 UV-I 0 W/m -3,8 C 0,7 C 7,9 km/h (2 Bft) 0,00 %
05.01.2015 05:45 0,7 C 71 % 1032,0 hPa 0,0 l/m 7,2 km/h (2 Bft) W-SW 251 0 min 0,000 mm 0,0 UV-I 0 W/m -3,9 C -0,1 C 11,9 km/h (2 Bft) 0,00 %
05.01.2015 06:00 0,7 C 71 % 1031,9 hPa 0,0 l/m 4,3 km/h (1 Bft) W-NW 296 0 min 0,000 mm 0,0 UV-I 0 W/m -3,9 C 0,7 C 7,9 km/h (2 Bft) 0,00 %
05.01.2015 06:15 0,7 C 71 % 1031,8 hPa 0,0 l/m 2,2 km/h (1 Bft) W-SW 255 0 min 0,000 mm 0,0 UV-I 0 W/m -3,9 C 0,7 C 4,0 km/h (1 Bft) 0,00 %
05.01.2015 06:30 0,6 C 72 % 1031,8 hPa 0,0 l/m 5,8 km/h (2 Bft) W-NW 296 0 min 0,000 mm 0,0 UV-I 0 W/m -3,9 C 0,6 C 11,9 km/h (2 Bft) 0,00 %
05.01.2015 06:45 0,6 C 71 % 1032,1 hPa 0,0 l/m 4,3 km/h (1 Bft) SW 226 0 min 0,000 mm 0,0 UV-I 0 W/m -4,0 C 0,6 C 7,9 km/h (2 Bft) 0,00 %
05.01.2015 07:00 0,8 C 70 % 1032,2 hPa 0,0 l/m 6,8 km/h (2 Bft) W 278 0 min 0,000 mm 0,0 UV-I 0 W/m -4,0 C 0,4 C 11,9 km/h (2 Bft) 0,00 %
05.01.2015 07:15 0,8 C 69 % 1032,1 hPa 0,0 l/m 1,8 km/h (1 Bft) W-NW 302 0 min 0,000 mm 0,0 UV-I 0 W/m -4,2 C 0,8 C 4,0 km/h (1 Bft) 0,00 %
05.01.2015 07:30 0,9 C 69 % 1032,4 hPa 0,0 l/m 0,7 km/h (0 Bft) W-SW 251 0 min 0,000 mm 0,0 UV-I 0 W/m -4,1 C 0,9 C 4,0 km/h (1 Bft) 0,00 %
05.01.2015 07:45 0,9 C 69 % 1032,6 hPa 0,0 l/m 2,9 km/h (1 Bft) W 275 0 min 0,000 mm 0,0 UV-I 0 W/m -4,1 C 0,9 C 4,0 km/h (1 Bft) 0,00 %
05.01.2015 08:00 0,9 C 69 % 1032,6 hPa 0,0 l/m 9,7 km/h (2 Bft) W-SW 252 0 min 0,000 mm 0,0 UV-I 0 W/m -4,1 C -2,2 C 15,8 km/h (3 Bft) 0,00 %
05.01.2015 08:15 0,8 C 70 % 1032,5 hPa 0,0 l/m 7,9 km/h (2 Bft) W-SW 250 0 min 0,000 mm 0,0 UV-I 0 W/m -4,0 C -0,7 C 11,9 km/h (2 Bft) 0,00 %
05.01.2015 08:30 0,6 C 71 % 1032,5 hPa 0,0 l/m 4,0 km/h (1 Bft) SO 133 0 min 0,000 mm 0,0 UV-I 0 W/m -4,0 C 0,6 C 7,9 km/h (2 Bft) 0,00 %
05.01.2015 08:45 0,4 C 74 % 1032,5 hPa 0,0 l/m 0,4 km/h (0 Bft) S 177 0 min 0,000 mm 0,0 UV-I 0 W/m -3,7 C 0,4 C 4,0 km/h (1 Bft) 0,00 %
05.01.2015 09:00 0,5 C 72 % 1032,5 hPa 0,0 l/m 0,4 km/h (0 Bft) W-SW 250 0 min 0,000 mm 0,0 UV-I 2 W/m -3,9 C 0,5 C 4,0 km/h (1 Bft) 0,00 %
05.01.2015 09:15 0,6 C 70 % 1032,2 hPa 0,0 l/m 1,4 km/h (1 Bft) W-SW 251 0 min 0,000 mm 0,0 UV-I 5 W/m -4,2 C 0,6 C 4,0 km/h (1 Bft) 0,00 %
05.01.2015 09:30 0,8 C 69 % 1032,1 hPa 0,0 l/m 6,5 km/h (2 Bft) W-SW 250 0 min 0,000 mm 0,0 UV-I 23 W/m -4,2 C 0,7 C 11,9 km/h (2 Bft) 0,00 %
05.01.2015 09:45 0,9 C 69 % 1031,8 hPa 0,0 l/m 4,3 km/h (1 Bft) W-SW 256 0 min 0,000 mm 0,0 UV-I 27 W/m -4,1 C 0,9 C 7,9 km/h (2 Bft) 0,00 %
05.01.2015 10:00 1,1 C 67 % 1031,7 hPa 0,0 l/m 10,8 km/h (2 Bft) W-SW 250 0 min 0,000 mm 1,0 UV-I 46 W/m -4,3 C -2,9 C 15,8 km/h (3 Bft) 0,00 %
05.01.2015 10:15 1,3 C 65 % 1031,9 hPa 0,0 l/m 8,3 km/h (2 Bft) W-SW 252 0 min 0,000 mm 1,0 UV-I 56 W/m -4,5 C -0,6 C 11,9 km/h (2 Bft) 0,00 %
05.01.2015 10:30 1,3 C 64 % 1031,1 hPa 0,0 l/m 5,8 km/h (2 Bft) W-SW 256 15 min 0,000 mm 1,0 UV-I 189 W/m -4,7 C 1,3 C 7,9 km/h (2 Bft) 0,00 %
05.01.2015 10:45 1,5 C 61 % 1031,6 hPa 0,0 l/m 2,9 km/h (1 Bft) N-NO 18 15 min 0,000 mm 1,0 UV-I 199 W/m -5,2 C 1,5 C 7,9 km/h (2 Bft) 0,00 %
05.01.2015 11:00 1,6 C 61 % 1031,0 hPa 0,0 l/m 1,4 km/h (1 Bft) W-SW 251 15 min 0,000 mm 1,0 UV-I 234 W/m -5,1 C 1,6 C 4,0 km/h (1 Bft) 0,00 %
05.01.2015 11:15 1,6 C 60 % 1031,0 hPa 0,0 l/m 0,7 km/h (0 Bft) SW 214 15 min 0,000 mm 1,0 UV-I 223 W/m -5,3 C 1,6 C 4,0 km/h (1 Bft) 0,00 %
05.01.2015 11:30 1,6 C 60 % 1030,9 hPa 0,0 l/m 4,0 km/h (1 Bft) W-SW 256 15 min 0,000 mm 1,0 UV-I 245 W/m -5,3 C 1,6 C 7,9 km/h (2 Bft) 0,00 %
05.01.2015 11:45 1,6 C 60 % 1030,3 hPa 0,0 l/m 2,2 km/h (1 Bft) W-NW 290 15 min 0,000 mm 1,0 UV-I 211 W/m -5,3 C 1,6 C 7,9 km/h (2 Bft) 0,00 %
05.01.2015 12:00 1,6 C 60 % 1030,4 hPa 0,0 l/m 7,9 km/h (2 Bft) W-SW 238 15 min 0,000 mm 1,0 UV-I 199 W/m -5,3 C 0,1 C 11,9 km/h (2 Bft) 0,00 %
05.01.2015 12:15 1,5 C 61 % 1030,5 hPa 0,0 l/m 2,2 km/h (1 Bft) S-SW 196 0 min 0,000 mm 1,0 UV-I 50 W/m -5,2 C 1,5 C 4,0 km/h (1 Bft) 0,00 %
05.01.2015 12:30 1,5 C 60 % 1030,4 hPa 0,0 l/m 2,2 km/h (1 Bft) W-SW 250 0 min 0,000 mm 1,0 UV-I 53 W/m -5,4 C 1,5 C 4,0 km/h (1 Bft) 0,00 %
05.01.2015 12:45 1,5 C 60 % 1030,0 hPa 0,0 l/m 4,7 km/h (1 Bft) W-SW 252 0 min 0,000 mm 1,0 UV-I 63 W/m -5,4 C 1,5 C 7,9 km/h (2 Bft) 0,00 %
05.01.2015 13:00 1,5 C 60 % 1029,8 hPa 0,0 l/m 5,8 km/h (2 Bft) W-SW 254 0 min 0,000 mm 1,0 UV-I 68 W/m -5,4 C 1,5 C 11,9 km/h (2 Bft) 0,00 %
05.01.2015 13:15 1,5 C 60 % 1029,6 hPa 0,0 l/m 10,8 km/h (2 Bft) S 178 0 min 0,000 mm 1,0 UV-I 57 W/m -5,4 C -2,4 C 15,8 km/h (3 Bft) 0,00 %
05.01.2015 13:30 1,5 C 60 % 1029,5 hPa 0,0 l/m 0,4 km/h (0 Bft) N 352 0 min 0,000 mm 1,0 UV-I 55 W/m -5,4 C 1,5 C 4,0 km/h (1 Bft) 0,00 %
05.01.2015 13:45 1,4 C 62 % 1029,0 hPa 0,0 l/m 7,2 km/h (2 Bft) W-SW 255 0 min 0,000 mm 1,0 UV-I 46 W/m -5,1 C 0,6 C 11,9 km/h (2 Bft) 0,00 %
05.01.2015 14:00 1,4 C 61 % 1029,0 hPa 0,0 l/m 6,5 km/h (2 Bft) SW 229 0 min 0,000 mm 1,0 UV-I 42 W/m -5,3 C 1,3 C 7,9 km/h (2 Bft) 0,00 %
05.01.2015 14:15 1,3 C 61 % 1029,3 hPa 0,0 l/m 2,9 km/h (1 Bft) W 264 0 min 0,000 mm 0,0 UV-I 36 W/m -5,4 C 1,3 C 7,9 km/h (2 Bft) 0,00 %
05.01.2015 14:30 1,2 C 61 % 1029,4 hPa 0,0 l/m 1,4 km/h (1 Bft) W 260 0 min 0,000 mm 0,0 UV-I 21 W/m -5,5 C 1,2 C 4,0 km/h (1 Bft) 0,00 %
05.01.2015 14:45 1,2 C 61 % 1029,4 hPa 0,0 l/m 4,0 km/h (1 Bft) W-SW 250 0 min 0,000 mm 0,0 UV-I 20 W/m -5,5 C 1,2 C 7,9 km/h (2 Bft) 0,00 %
05.01.2015 15:00 1,1 C 61 % 1029,2 hPa 0,0 l/m 5,8 km/h (2 Bft) W-SW 255 0 min 0,000 mm 0,0 UV-I 21 W/m -5,6 C 1,1 C 7,9 km/h (2 Bft) 0,00 %
05.01.2015 15:15 1,2 C 61 % 1029,0 hPa 0,0 l/m 5,4 km/h (1 Bft) W-SW 239 0 min 0,000 mm 0,0 UV-I 6 W/m -5,5 C 1,2 C 11,9 km/h (2 Bft) 0,00 %
05.01.2015 15:30 1,2 C 60 % 1028,9 hPa 0,0 l/m 1,8 km/h (1 Bft) SW 233 0 min 0,000 mm 0,0 UV-I 3 W/m -5,7 C 1,2 C 4,0 km/h (1 Bft) 0,00 %
05.01.2015 15:45 1,2 C 59 % 1028,5 hPa 0,0 l/m 5,4 km/h (1 Bft) SW 227 0 min 0,000 mm 0,0 UV-I 0 W/m -5,9 C 1,2 C 7,9 km/h (2 Bft) 0,00 %
05.01.2015 16:00 1,2 C 58 % 1028,4 hPa 0,0 l/m 1,8 km/h (1 Bft) S 173 0 min 0,000 mm 0,0 UV-I 0 W/m -6,1 C 1,2 C 4,0 km/h (1 Bft) 0,00 %
05.01.2015 16:15 1,2 C 58 % 1028,4 hPa 0,0 l/m 1,8 km/h (1 Bft) S 190 0 min 0,000 mm 0,0 UV-I 0 W/m -6,1 C 1,2 C 4,0 km/h (1 Bft) 0,00 %
05.01.2015 16:30 1,3 C 58 % 1028,1 hPa 0,0 l/m 14,4 km/h (3 Bft) W 261 0 min 0,000 mm 0,0 UV-I 0 W/m -6,0 C -5,1 C 19,8 km/h (3 Bft) 0,00 %
05.01.2015 16:45 1,4 C 57 % 1028,2 hPa 0,0 l/m 5,8 km/h (2 Bft) W-SW 256 0 min 0,000 mm 0,0 UV-I 0 W/m -6,2 C 1,4 C 7,9 km/h (2 Bft) 0,00 %
05.01.2015 17:00 1,4 C 55 % 1028,3 hPa 0,0 l/m 6,5 km/h (2 Bft) NW 324 0 min 0,000 mm 0,0 UV-I 0 W/m -6,6 C 1,3 C 11,9 km/h (2 Bft) 0,00 %
05.01.2015 17:15 1,5 C 55 % 1028,2 hPa 0,0 l/m 0,0 km/h (0 Bft) W 260 0 min 0,000 mm 0,0 UV-I 0 W/m -6,5 C 1,5 C 0,0 km/h (0 Bft) 0,00 %
05.01.2015 17:30 1,5 C 54 % 1028,4 hPa 0,0 l/m 11,9 km/h (2 Bft) W-SW 251 0 min 0,000 mm 0,0 UV-I 0 W/m -6,8 C -3,2 C 15,8 km/h (3 Bft) 0,00 %
05.01.2015 17:45 1,6 C 54 % 1028,7 hPa 0,0 l/m 2,2 km/h (1 Bft) W-SW 250 0 min 0,000 mm 0,0 UV-I 0 W/m -6,7 C 1,6 C 4,0 km/h (1 Bft) 0,00 %
05.01.2015 18:00 1,6 C 54 % 1029,0 hPa 0,0 l/m 0,4 km/h (0 Bft) W-SW 251 0 min 0,000 mm 0,0 UV-I 0 W/m -6,7 C 1,6 C 4,0 km/h (1 Bft) 0,00 %
05.01.2015 18:15 1,6 C 54 % 1028,9 hPa 0,0 l/m 0,7 km/h (0 Bft) S-SW 210 0 min 0,000 mm 0,0 UV-I 0 W/m -6,7 C 1,6 C 4,0 km/h (1 Bft) 0,00 %
05.01.2015 18:30 1,6 C 54 % 1028,8 hPa 0,0 l/m 0,7 km/h (0 Bft) SW 228 0 min 0,000 mm 0,0 UV-I 0 W/m -6,7 C 1,6 C 4,0 km/h (1 Bft) 0,00 %
05.01.2015 18:45 1,7 C 54 % 1028,7 hPa 0,0 l/m 4,7 km/h (1 Bft) SW 231 0 min 0,000 mm 0,0 UV-I 0 W/m -6,6 C 1,7 C 11,9 km/h (2 Bft) 0,00 %
05.01.2015 19:00 1,7 C 55 % 1029,0 hPa 0,0 l/m 0,4 km/h (0 Bft) W-SW 244 0 min 0,000 mm 0,0 UV-I 0 W/m -6,4 C 1,7 C 4,0 km/h (1 Bft) 0,00 %
05.01.2015 19:15 1,6 C 56 % 1029,0 hPa 0,0 l/m 0,0 km/h (0 Bft) SW 218 0 min 0,000 mm 0,0 UV-I 0 W/m -6,2 C 1,6 C 0,0 km/h (0 Bft) 0,00 %
05.01.2015 19:30 1,5 C 56 % 1029,1 hPa 0,0 l/m 0,0 km/h (0 Bft) O-SO 123 0 min 0,000 mm 0,0 UV-I 0 W/m -6,3 C 1,5 C 0,0 km/h (0 Bft) 0,00 %
05.01.2015 19:45 1,5 C 56 % 1028,7 hPa 0,0 l/m 3,2 km/h (1 Bft) W-NW 292 0 min 0,000 mm 0,0 UV-I 0 W/m -6,3 C 1,5 C 7,9 km/h (2 Bft) 0,00 %
05.01.2015 20:00 1,5 C 59 % 1028,9 hPa 0,0 l/m 1,4 km/h (1 Bft) W-SW 252 0 min 0,000 mm 0,0 UV-I 0 W/m -5,6 C 1,5 C 4,0 km/h (1 Bft) 0,00 %
05.01.2015 20:15 1,4 C 59 % 1028,8 hPa 0,0 l/m 4,7 km/h (1 Bft) W-SW 250 0 min 0,000 mm 0,0 UV-I 0 W/m -5,7 C 1,4 C 7,9 km/h (2 Bft) 0,00 %
05.01.2015 20:30 1,4 C 58 % 1028,4 hPa 0,0 l/m 1,4 km/h (1 Bft) W-SW 250 0 min 0,000 mm 0,0 UV-I 0 W/m -5,9 C 1,4 C 4,0 km/h (1 Bft) 0,00 %
05.01.2015 20:45 1,5 C 57 % 1028,5 hPa 0,0 l/m 4,7 km/h (1 Bft) W-SW 251 0 min 0,000 mm 0,0 UV-I 0 W/m -6,1 C 1,5 C 7,9 km/h (2 Bft) 0,00 %
05.01.2015 21:00 1,4 C 58 % 1028,3 hPa 0,0 l/m 4,0 km/h (1 Bft) W-SW 256 0 min 0,000 mm 0,0 UV-I 0 W/m -5,9 C 1,4 C 7,9 km/h (2 Bft) 0,00 %
05.01.2015 21:15 1,4 C 59 % 1028,8 hPa 0,0 l/m 3,2 km/h (1 Bft) W-NW 292 0 min 0,000 mm 0,0 UV-I 0 W/m -5,7 C 1,4 C 7,9 km/h (2 Bft) 0,00 %
05.01.2015 21:30 1,4 C 59 % 1028,5 hPa 0,0 l/m 3,2 km/h (1 Bft) W-SW 252 0 min 0,000 mm 0,0 UV-I 0 W/m -5,7 C 1,4 C 4,0 km/h (1 Bft) 0,00 %
05.01.2015 21:45 1,2 C 59 % 1028,4 hPa 0,0 l/m 1,4 km/h (1 Bft) SW 234 0 min 0,000 mm 0,0 UV-I 0 W/m -5,9 C 1,2 C 4,0 km/h (1 Bft) 0,00 %
05.01.2015 22:00 1,2 C 59 % 1029,0 hPa 0,0 l/m 0,0 km/h (0 Bft) S 183 0 min 0,000 mm 0,0 UV-I 0 W/m -5,9 C 1,2 C 0,0 km/h (0 Bft) 0,00 %
05.01.2015 22:15 1,2 C 60 % 1028,8 hPa 0,0 l/m 0,7 km/h (0 Bft) W-SW 251 0 min 0,000 mm 0,0 UV-I 0 W/m -5,7 C 1,2 C 4,0 km/h (1 Bft) 0,00 %
05.01.2015 22:30 1,1 C 60 % 1028,6 hPa 0,0 l/m 0,4 km/h (0 Bft) W-SW 256 0 min 0,000 mm 0,0 UV-I 0 W/m -5,8 C 1,1 C 4,0 km/h (1 Bft) 0,00 %
05.01.2015 22:45 1,1 C 60 % 1028,8 hPa 0,0 l/m 3,2 km/h (1 Bft) W-SW 253 0 min 0,000 mm 0,0 UV-I 0 W/m -5,8 C 1,1 C 4,0 km/h (1 Bft) 0,00 %
05.01.2015 23:00 0,9 C 60 % 1028,6 hPa 0,0 l/m 0,7 km/h (0 Bft) W-NW 299 0 min 0,000 mm 0,0 UV-I 0 W/m -6,0 C 0,9 C 4,0 km/h (1 Bft) 0,00 %
05.01.2015 23:15 0,9 C 60 % 1028,7 hPa 0,0 l/m 1,8 km/h (1 Bft) W-SW 256 0 min 0,000 mm 0,0 UV-I 0 W/m -6,0 C 0,9 C 4,0 km/h (1 Bft) 0,00 %
05.01.2015 23:30 0,8 C 61 % 1029,0 hPa 0,0 l/m 0,4 km/h (0 Bft) N-NW 334 0 min 0,000 mm 0,0 UV-I 0 W/m -5,8 C 0,8 C 4,0 km/h (1 Bft) 0,00 %
05.01.2015 23:45 0,8 C 60 % 1029,0 hPa 0,0 l/m 0,0 km/h (0 Bft) S 182 0 min 0,000 mm 0,0 UV-I 0 W/m -6,1 C 0,8 C 0,0 km/h (0 Bft) 0,00 %
_ Min-Zeit 03:00 17:30 16:30 - 17:15 - - - - - - 17:30 16:30 17:15 00:00
Minimum _ 0,1 C 54 % 1028,1 hPa - 0,0 km/h (0 Bft) - - - - - - -6,8 C -5,1 C 0,0 km/h (0 Bft) 0,00 %
_ Max-Zeit 18:45 00:30 07:45 00:00 16:30 - - 10:30 00:00 10:00 11:30 00:15 18:45 16:30 00:00
Maximum _ 1,7 C 76 % 1032,6 hPa 0,0 l/m 14,4 km/h
W (3 Bft)
- - 15 min 0,000 mm 1,0 UV-I 245 W/m -3,4 C 1,7 C 19,8 km/h
W (3 Bft)
0,00 %
Durchschnitt _ 1,0 C 64 % 1030,5 hPa #0,0 l/m 4,0 km/h (1 Bft) W-SW - #1:45 h #0,000 mm 1,0 UV-I 81 W/m -5,0 C 0,6 C 7,4 km/h (2 Bft) 0,00 %